Weather Roundup
Issued by NWS Springfield, MO

Home | Current Version | Previous Version | Text Only | Print | Product List | Glossary On
Versions: 1 2 3 4 5 6 7 8 9 10 11 12 13 14 15 16 17 18 19 20 21 22 23 24 25 26 27 28 29 30 31 32 33 34 35 36 37 38 39 40 41 42 43 44 45 46 47 48 49 50
000
NZUS99 KSGF 012007
HRRSGF

HOURLY WEATHER
NATIONAL WEATHER SERVICE SPRINGFIELD MO
300 PM CDT WED APR 01 2015

......SGF CWA......

CITY           SKY/WX    TMP DP  RH WIND       PRES   REMARKS
SPRINGFIELD    CLOUDY    61  58  90 SE13      29.89S THUNDER
JOPLIN         PTSUNNY   65  61  87 E10       29.84F
WEST PLAINS    CLOUDY    66  47  50 SE7       29.97F
ROLLA          MOSUNNY   74  42  31 SE18G24   29.90F
OSAGE BEACH    CLOUDY    72  46  40 S14G20    29.91S
BRANSON        CLOUDY    64  63  94 E10       29.92F

......SURROUNDING SGF CWA......

CITY           SKY/WX    TMP DP  RH WIND       PRES   REMARKS
CHANUTE        SUNNY     75  58  55 SE15G25   29.80F
PARSONS        PTSUNNY   76  60  57 S14G23    29.81F
COFFEYVILLE    PTSUNNY   73  60  63 S16       29.80F
EMPORIA        SUNNY     80  51  36 S20G33    29.73F
GROVE OK       PTSUNNY   72  63  73 N3        29.83F
ROGERS AR      CLOUDY    75  59  57 S14       29.87F
SILOAM SPRINGS CLOUDY    73  57  56 S17       29.87S
HARRISON AR    CLOUDY    66  62  87 SE9       29.92F
NEAR YELLVILLE CLOUDY    64  57  77 E5        29.93F

......KANSAS AND MISSOURI......

CITY           SKY/WX    TMP DP  RH WIND       PRES   REMARKS
KANSAS CTY INT CLOUDY    79  56  45 S25G33    29.77F
DOWNTOWN KC    LGT RAIN  80  54  40 S16G29    29.77F
COLUMBIA       PTSUNNY   76  44  32 S18G29    29.87F
SEDALIA        CLOUDY    74  50  42 S23G31    29.86F
ST JOSEPH      MOSUNNY   81  54  39 S20G31    29.73F
ST LOUIS       PTSUNNY   77  36  22 SE18      29.94F
SPIRIT OF STL  MOSUNNY   77  34  21 SE15G26   29.91F
KIRKSVILLE     MOSUNNY   78  45  30 S24       29.83F
WICHITA        MOSUNNY   85  57  38 S22G32    29.68F
TOPEKA         MOSUNNY   80  52  37 S18G31    29.73F
OLATHE         PTSUNNY   78  56  46 S22G32    29.78F

......TENNESSEE......

CITY           SKY/WX    TMP DP  RH WIND       PRES   REMARKS
MEMPHIS        PTSUNNY   81  62  52 SE8       29.96F
NASHVILLE      MOSUNNY   75  28  17 E7        30.06F

......ARKANSAS.......

CITY           SKY/WX    TMP DP  RH WIND       PRES   REMARKS
FAYETTEVILLE   CLOUDY    72  59  63 SW15      29.87F
FT SMITH       CLOUDY    78  58  49 SE9       29.84F
LITTLE ROCK    CLOUDY    80  61  52 S8G17     29.91F

......OKLAHOMA.......

CITY           SKY/WX    TMP DP  RH WIND       PRES   REMARKS
TULSA          PTSUNNY   81  56  42 S9G21     29.78F
PONCA CITY     SUNNY     85  52  32 S16G30    29.72F
MCALESTER      CLOUDY    74  59  59 S14G21    29.82F
OKLAHOMA CITY  MOSUNNY   81  58  45 S18G26    29.77F

......IOWA............

CITY           SKY/WX    TMP DP  RH WIND       PRES   REMARKS
DES MOINES     MOSUNNY   82  36  19 S24G32    29.73F
QUAD CITIES    SUNNY     80  31  16 S23G31    29.84F

......ILLINOIS........

CITY           SKY/WX    TMP DP  RH WIND       PRES   REMARKS
QUINCY         MOSUNNY   76  33  21 S21G29    29.88F
CHICAGO        MOSUNNY   71  35  26 S10G22    29.93F




USA.gov is the U.S. government's official web portal to all federal, state and local government web resources and services.